Year,Month,Day,Hour,Minute,Value (Times are PST for temperature in C)
2020,04,12,00,00,3.70
2020,04,12,00,01,3.70
2020,04,12,00,02,3.60
2020,04,12,00,03,3.60
2020,04,12,00,04,3.60
2020,04,12,00,05,3.50
2020,04,12,00,06,3.50
2020,04,12,00,07,3.40
2020,04,12,00,08,3.40
2020,04,12,00,09,3.40
2020,04,12,00,10,3.40
2020,04,12,00,11,3.30
2020,04,12,00,12,3.30
2020,04,12,00,13,3.30
2020,04,12,00,14,3.30
2020,04,12,00,15,3.30
2020,04,12,00,16,3.30
2020,04,12,00,17,3.30
2020,04,12,00,18,3.30
2020,04,12,00,19,3.30
2020,04,12,00,20,3.30
2020,04,12,00,21,3.30
2020,04,12,00,22,3.30
2020,04,12,00,23,3.30
2020,04,12,00,24,3.30
2020,04,12,00,25,3.30
2020,04,12,00,26,3.30
2020,04,12,00,27,3.30
2020,04,12,00,28,3.30
2020,04,12,00,29,3.30
2020,04,12,00,30,3.30
2020,04,12,00,31,3.30
2020,04,12,00,32,3.20
2020,04,12,00,33,3.20
2020,04,12,00,34,3.20
2020,04,12,00,35,3.20
2020,04,12,00,36,3.20
2020,04,12,00,37,3.20
2020,04,12,00,38,3.20
2020,04,12,00,39,3.20
2020,04,12,00,40,3.20
2020,04,12,00,41,3.20
2020,04,12,00,42,3.10
2020,04,12,00,43,3.10
2020,04,12,00,44,3.10
2020,04,12,00,45,3.10
2020,04,12,00,46,3.10
2020,04,12,00,47,3.10
2020,04,12,00,48,3.10
2020,04,12,00,49,3.10
2020,04,12,00,50,3.00
2020,04,12,00,51,3.00
2020,04,12,00,52,3.00
2020,04,12,00,53,2.90
2020,04,12,00,54,2.90
2020,04,12,00,55,2.90
2020,04,12,00,56,2.90
2020,04,12,00,57,2.90
2020,04,12,00,58,2.80
2020,04,12,00,59,2.80
2020,04,12,01,00,2.80
2020,04,12,01,01,2.80
2020,04,12,01,02,2.80
2020,04,12,01,03,2.80
2020,04,12,01,04,2.70
2020,04,12,01,05,2.70
2020,04,12,01,06,2.70
2020,04,12,01,07,2.70
2020,04,12,01,08,2.70
2020,04,12,01,09,2.70
2020,04,12,01,10,2.70
2020,04,12,01,11,2.70
2020,04,12,01,12,2.70
2020,04,12,01,13,2.70
2020,04,12,01,14,2.60
2020,04,12,01,15,2.60
2020,04,12,01,16,2.60
2020,04,12,01,17,2.60
2020,04,12,01,18,2.60
2020,04,12,01,19,2.50
2020,04,12,01,20,2.50
2020,04,12,01,21,2.50
2020,04,12,01,22,2.40
2020,04,12,01,23,2.40
2020,04,12,01,24,2.40
2020,04,12,01,25,2.40
2020,04,12,01,26,2.30
2020,04,12,01,27,2.30
2020,04,12,01,28,2.30
2020,04,12,01,29,2.30
2020,04,12,01,30,2.30
2020,04,12,01,31,2.30
2020,04,12,01,32,2.30
2020,04,12,01,33,2.30
2020,04,12,01,34,2.20
2020,04,12,01,35,2.20
2020,04,12,01,36,2.30
2020,04,12,01,37,2.30
2020,04,12,01,38,2.30
2020,04,12,01,39,2.30
2020,04,12,01,40,2.30
2020,04,12,01,41,2.30
2020,04,12,01,42,2.30
2020,04,12,01,43,2.30
2020,04,12,01,44,2.20
2020,04,12,01,45,2.20
2020,04,12,01,46,2.20
2020,04,12,01,47,2.20
2020,04,12,01,48,2.20
2020,04,12,01,49,2.10
2020,04,12,01,50,2.10
2020,04,12,01,51,2.10
2020,04,12,01,52,2.10
2020,04,12,01,53,2.10
2020,04,12,01,54,2.10
2020,04,12,01,55,2.10
2020,04,12,01,56,2.10
2020,04,12,01,57,2.10
2020,04,12,01,58,2.10
2020,04,12,01,59,2.10
2020,04,12,02,00,2.10
2020,04,12,02,01,2.10
2020,04,12,02,02,2.10
2020,04,12,02,03,2.00
2020,04,12,02,04,2.00
2020,04,12,02,05,2.00
2020,04,12,02,06,2.00
2020,04,12,02,07,2.00
2020,04,12,02,08,2.00
2020,04,12,02,09,1.90
2020,04,12,02,10,1.90
2020,04,12,02,11,1.90
2020,04,12,02,12,1.90
2020,04,12,02,13,1.90
2020,04,12,02,14,1.80
2020,04,12,02,15,1.80
2020,04,12,02,16,1.80
2020,04,12,02,17,1.80
2020,04,12,02,18,1.80
2020,04,12,02,19,1.80
2020,04,12,02,20,1.80
2020,04,12,02,21,1.80
2020,04,12,02,22,1.70
2020,04,12,02,23,1.70
2020,04,12,02,24,1.70
2020,04,12,02,25,1.70
2020,04,12,02,26,1.70
2020,04,12,02,27,1.70
2020,04,12,02,28,1.70
2020,04,12,02,29,1.70
2020,04,12,02,30,1.70
2020,04,12,02,31,1.70
2020,04,12,02,32,1.70
2020,04,12,02,33,1.70
2020,04,12,02,34,1.70
2020,04,12,02,35,1.60
2020,04,12,02,36,1.60
2020,04,12,02,37,1.60
2020,04,12,02,38,1.60
2020,04,12,02,39,1.60
2020,04,12,02,40,1.60
2020,04,12,02,41,1.50
2020,04,12,02,42,1.50
2020,04,12,02,43,1.50
2020,04,12,02,44,1.50
2020,04,12,02,45,1.40
2020,04,12,02,46,1.40
2020,04,12,02,47,1.40
2020,04,12,02,48,1.30
2020,04,12,02,49,1.30
2020,04,12,02,50,1.30
2020,04,12,02,51,1.30
2020,04,12,02,52,1.30
2020,04,12,02,53,1.30
2020,04,12,02,54,1.30
2020,04,12,02,55,1.30
2020,04,12,02,56,1.30
2020,04,12,02,57,1.30
2020,04,12,02,58,1.30
2020,04,12,02,59,1.30
2020,04,12,03,00,1.30
2020,04,12,03,01,1.30
2020,04,12,03,02,1.30
2020,04,12,03,03,1.30
2020,04,12,03,04,1.30
2020,04,12,03,05,1.30
2020,04,12,03,06,1.30
2020,04,12,03,07,1.30
2020,04,12,03,08,1.30
2020,04,12,03,09,1.30
2020,04,12,03,10,1.30
2020,04,12,03,11,1.30
2020,04,12,03,12,1.30
2020,04,12,03,13,1.30
2020,04,12,03,14,1.30
2020,04,12,03,15,1.30
2020,04,12,03,16,1.20
2020,04,12,03,17,1.20
2020,04,12,03,18,1.20
2020,04,12,03,19,1.20
2020,04,12,03,20,1.20
2020,04,12,03,21,1.10
2020,04,12,03,22,1.10
2020,04,12,03,23,1.10
2020,04,12,03,24,1.10
2020,04,12,03,25,1.10
2020,04,12,03,26,1.10
2020,04,12,03,27,1.00
2020,04,12,03,28,1.00
2020,04,12,03,29,1.00
2020,04,12,03,30,0.90
2020,04,12,03,31,0.90
2020,04,12,03,32,0.90
2020,04,12,03,33,0.90
2020,04,12,03,34,0.90
2020,04,12,03,35,0.80
2020,04,12,03,36,0.80
2020,04,12,03,37,0.80
2020,04,12,03,38,0.80
2020,04,12,03,39,0.80
2020,04,12,03,40,0.80
2020,04,12,03,41,0.80
2020,04,12,03,42,0.80
2020,04,12,03,43,0.70
2020,04,12,03,44,0.70
2020,04,12,03,45,0.70
2020,04,12,03,46,0.70
2020,04,12,03,47,0.70
2020,04,12,03,48,0.70
2020,04,12,03,49,0.70
2020,04,12,03,50,0.70
2020,04,12,03,51,0.70
2020,04,12,03,52,0.70
2020,04,12,03,53,0.70
2020,04,12,03,54,0.70
2020,04,12,03,55,0.70
2020,04,12,03,56,0.70
2020,04,12,03,57,0.70
2020,04,12,03,58,0.70
2020,04,12,03,59,0.70
2020,04,12,04,00,0.60
2020,04,12,04,01,0.60
2020,04,12,04,02,0.60
2020,04,12,04,03,0.60
2020,04,12,04,04,0.60
2020,04,12,04,05,0.60
2020,04,12,04,06,0.60
2020,04,12,04,07,0.60
2020,04,12,04,08,0.60
2020,04,12,04,09,0.50
2020,04,12,04,10,0.50
2020,04,12,04,11,0.50
2020,04,12,04,12,0.50
2020,04,12,04,13,0.50
2020,04,12,04,14,0.40
2020,04,12,04,15,0.40
2020,04,12,04,16,0.40
2020,04,12,04,17,0.40
2020,04,12,04,18,0.40
2020,04,12,04,19,0.40
2020,04,12,04,20,0.40
2020,04,12,04,21,0.40
2020,04,12,04,22,0.30
2020,04,12,04,23,0.30
2020,04,12,04,24,0.30
2020,04,12,04,25,0.30
2020,04,12,04,26,0.30
2020,04,12,04,27,0.30
2020,04,12,04,28,0.30
2020,04,12,04,29,0.30
2020,04,12,04,30,0.30
2020,04,12,04,31,0.30
2020,04,12,04,32,0.30
2020,04,12,04,33,0.20
2020,04,12,04,34,0.20
2020,04,12,04,35,0.20
2020,04,12,04,36,0.20
2020,04,12,04,37,0.20
2020,04,12,04,38,0.20
2020,04,12,04,39,0.20
2020,04,12,04,40,0.20
2020,04,12,04,41,0.20
2020,04,12,04,42,0.20
2020,04,12,04,43,0.20
2020,04,12,04,44,0.20
2020,04,12,04,45,0.20
2020,04,12,04,46,0.20
2020,04,12,04,47,0.20
2020,04,12,04,48,0.20
2020,04,12,04,49,0.20
2020,04,12,04,50,0.20
2020,04,12,04,51,0.20
2020,04,12,04,52,0.20
2020,04,12,04,53,0.20
2020,04,12,04,54,0.20
2020,04,12,04,55,0.20
2020,04,12,04,56,0.20
2020,04,12,04,57,0.10
2020,04,12,04,58,0.10
2020,04,12,04,59,0.10
2020,04,12,05,00,0.10
2020,04,12,05,01,0.10
2020,04,12,05,02,0.10
2020,04,12,05,03,0.10
2020,04,12,05,04,0.10
2020,04,12,05,05,0.00
2020,04,12,05,06,0.00
2020,04,12,05,07,0.00
2020,04,12,05,08,0.00
2020,04,12,05,09,0.00
2020,04,12,05,10,0.00
2020,04,12,05,11,-0.10
2020,04,12,05,12,-0.10
2020,04,12,05,13,-0.10
2020,04,12,05,14,-0.10
2020,04,12,05,15,-0.10
2020,04,12,05,16,-0.10
2020,04,12,05,17,-0.10
2020,04,12,05,18,-0.10
2020,04,12,05,19,-0.10
2020,04,12,05,20,-0.10
2020,04,12,05,21,-0.10
2020,04,12,05,22,-0.10
2020,04,12,05,23,-0.10
2020,04,12,05,24,-0.10
2020,04,12,05,25,-0.10
2020,04,12,05,26,-0.10
2020,04,12,05,27,-0.10
2020,04,12,05,28,-0.10
2020,04,12,05,29,-0.10
2020,04,12,05,30,-0.10
2020,04,12,05,31,-0.10
2020,04,12,05,32,-0.10
2020,04,12,05,33,-0.10
2020,04,12,05,34,-0.20
2020,04,12,05,35,-0.20
2020,04,12,05,36,-0.20
2020,04,12,05,37,-0.20
2020,04,12,05,38,-0.20
2020,04,12,05,39,-0.30
2020,04,12,05,40,-0.30
2020,04,12,05,41,-0.30
2020,04,12,05,42,-0.30
2020,04,12,05,43,-0.30
2020,04,12,05,44,-0.30
2020,04,12,05,45,-0.30
2020,04,12,05,46,-0.30
2020,04,12,05,47,-0.30
2020,04,12,05,48,-0.30
2020,04,12,05,49,-0.30
2020,04,12,05,50,-0.30
2020,04,12,05,51,-0.30
2020,04,12,05,52,-0.30
2020,04,12,05,53,-0.30
2020,04,12,05,54,-0.30
2020,04,12,05,55,-0.30
2020,04,12,05,56,-0.30
2020,04,12,05,57,-0.30
2020,04,12,05,58,-0.30
2020,04,12,05,59,-0.30
2020,04,12,06,00,-0.30
2020,04,12,06,01,-0.30
2020,04,12,06,02,-0.30
2020,04,12,06,03,-0.30
2020,04,12,06,04,-0.30
2020,04,12,06,05,-0.30
2020,04,12,06,06,-0.30
2020,04,12,06,07,-0.30
2020,04,12,06,08,-0.30
2020,04,12,06,09,-0.30
2020,04,12,06,10,-0.30
2020,04,12,06,11,-0.40
2020,04,12,06,12,-0.40
2020,04,12,06,13,-0.40
2020,04,12,06,14,-0.40
2020,04,12,06,15,-0.40
2020,04,12,06,16,-0.40
2020,04,12,06,17,-0.40
2020,04,12,06,18,-0.50
2020,04,12,06,19,-0.50
2020,04,12,06,20,-0.50
2020,04,12,06,21,-0.50
2020,04,12,06,22,-0.50
2020,04,12,06,23,-0.50
2020,04,12,06,24,-0.50
2020,04,12,06,25,-0.60
2020,04,12,06,26,-0.60
2020,04,12,06,27,-0.60
2020,04,12,06,28,-0.60
2020,04,12,06,29,-0.60
2020,04,12,06,30,-0.60
2020,04,12,06,31,-0.60
2020,04,12,06,32,-0.60
2020,04,12,06,33,-0.60
2020,04,12,06,34,-0.60
2020,04,12,06,35,-0.60
2020,04,12,06,36,-0.60
2020,04,12,06,37,-0.60
2020,04,12,06,38,-0.60
2020,04,12,06,39,-0.60
2020,04,12,06,40,-0.60
2020,04,12,06,41,-0.60
2020,04,12,06,42,-0.60
2020,04,12,06,43,-0.60
2020,04,12,06,44,-0.60
2020,04,12,06,45,-0.60
2020,04,12,06,46,-0.60
2020,04,12,06,47,-0.60
2020,04,12,06,48,-0.60
2020,04,12,06,49,-0.60
2020,04,12,06,50,-0.60
2020,04,12,06,51,-0.60
2020,04,12,06,52,-0.60
2020,04,12,06,53,-0.60
2020,04,12,06,54,-0.60
2020,04,12,06,55,-0.60
2020,04,12,06,56,-0.60
2020,04,12,06,57,-0.60
2020,04,12,06,58,-0.60
2020,04,12,06,59,-0.60
2020,04,12,07,00,-0.60
2020,04,12,07,01,-0.60
2020,04,12,07,02,-0.60
2020,04,12,07,03,-0.60
2020,04,12,07,04,-0.60
2020,04,12,07,05,-0.60
2020,04,12,07,06,-0.60
2020,04,12,07,07,-0.60
2020,04,12,07,08,-0.60
2020,04,12,07,09,-0.60
2020,04,12,07,10,-0.60
2020,04,12,07,11,-0.60
2020,04,12,07,12,-0.60
2020,04,12,07,13,-0.60
2020,04,12,07,14,-0.60
2020,04,12,07,15,-0.60
2020,04,12,07,16,-0.60
2020,04,12,07,17,-0.60
2020,04,12,07,18,-0.60
2020,04,12,07,19,-0.60
2020,04,12,07,20,-0.60
2020,04,12,07,21,-0.60
2020,04,12,07,22,-0.60
2020,04,12,07,23,-0.60
2020,04,12,07,24,-0.60
2020,04,12,07,25,-0.60
2020,04,12,07,26,-0.60
2020,04,12,07,27,-0.60
2020,04,12,07,28,-0.60
2020,04,12,07,29,-0.50
2020,04,12,07,30,-0.50
2020,04,12,07,31,-0.50
2020,04,12,07,32,-0.50
2020,04,12,07,33,-0.50
2020,04,12,07,34,-0.50
2020,04,12,07,35,-0.50
2020,04,12,07,36,-0.50
2020,04,12,07,37,-0.50
2020,04,12,07,38,-0.50
2020,04,12,07,39,-0.50
2020,04,12,07,40,-0.50
2020,04,12,07,41,-0.50
2020,04,12,07,42,-0.50
2020,04,12,07,43,-0.50
2020,04,12,07,44,-0.40
2020,04,12,07,45,-0.40
2020,04,12,07,46,-0.40
2020,04,12,07,47,-0.40
2020,04,12,07,48,-0.40
2020,04,12,07,49,-0.40
2020,04,12,07,50,-0.40
2020,04,12,07,51,-0.40
2020,04,12,07,52,-0.40
2020,04,12,07,53,-0.40
2020,04,12,07,54,-0.40
2020,04,12,07,55,-0.40
2020,04,12,07,56,-0.40
2020,04,12,07,57,-0.40
2020,04,12,07,58,-0.40
2020,04,12,07,59,-0.40
2020,04,12,08,00,-0.40
2020,04,12,08,01,-0.40
2020,04,12,08,02,-0.30
2020,04,12,08,03,-0.30
2020,04,12,08,04,-0.30
2020,04,12,08,05,-0.30
2020,04,12,08,06,-0.30
2020,04,12,08,07,-0.30
2020,04,12,08,08,-0.30
2020,04,12,08,09,-0.30
2020,04,12,08,10,-0.20
2020,04,12,08,11,-0.20
2020,04,12,08,12,-0.20
2020,04,12,08,13,-0.20
2020,04,12,08,14,-0.20
2020,04,12,08,15,-0.20
2020,04,12,08,16,-0.10
2020,04,12,08,17,-0.10
2020,04,12,08,18,-0.10
2020,04,12,08,19,-0.10
2020,04,12,08,20,-0.10
2020,04,12,08,21,-0.10
2020,04,12,08,22,0.00
2020,04,12,08,23,0.00
2020,04,12,08,24,0.00
2020,04,12,08,25,0.00
2020,04,12,08,26,0.10
2020,04,12,08,27,0.10
2020,04,12,08,28,0.10
2020,04,12,08,29,0.10
2020,04,12,08,30,0.20
2020,04,12,08,31,0.20
2020,04,12,08,32,0.20
2020,04,12,08,33,0.20
2020,04,12,08,34,0.20
2020,04,12,08,35,0.30
2020,04,12,08,36,0.30
2020,04,12,08,37,0.40
2020,04,12,08,38,0.40
2020,04,12,08,39,0.40
2020,04,12,08,40,0.50
2020,04,12,08,41,0.50
2020,04,12,08,42,0.60
2020,04,12,08,43,0.60
2020,04,12,08,44,0.60
2020,04,12,08,45,0.60
2020,04,12,08,46,0.70
2020,04,12,08,47,0.70
2020,04,12,08,48,0.70
2020,04,12,08,49,0.80
2020,04,12,08,50,0.80
2020,04,12,08,51,0.90
2020,04,12,08,52,0.90
2020,04,12,08,53,0.90
2020,04,12,08,54,1.00
2020,04,12,08,55,1.10
2020,04,12,08,56,1.10
2020,04,12,08,57,1.20
2020,04,12,08,58,1.20
2020,04,12,08,59,1.30
2020,04,12,09,00,1.30
2020,04,12,09,01,1.30
2020,04,12,09,02,1.30
2020,04,12,09,03,1.30
2020,04,12,09,04,1.30
2020,04,12,09,05,1.40
2020,04,12,09,06,1.40
2020,04,12,09,07,1.50
2020,04,12,09,08,1.50
2020,04,12,09,09,1.60
2020,04,12,09,10,1.60
2020,04,12,09,11,1.70
2020,04,12,09,12,1.70
2020,04,12,09,13,1.80
2020,04,12,09,14,1.80
2020,04,12,09,15,1.90
2020,04,12,09,16,1.90
2020,04,12,09,17,2.00
2020,04,12,09,18,2.10
2020,04,12,09,19,2.10
2020,04,12,09,20,2.20
2020,04,12,09,21,2.30
2020,04,12,09,22,2.30
2020,04,12,09,23,2.40
2020,04,12,09,24,2.40
2020,04,12,09,25,2.50
2020,04,12,09,26,2.50
2020,04,12,09,27,2.60
2020,04,12,09,28,2.70
2020,04,12,09,29,2.80
2020,04,12,09,30,2.80
2020,04,12,09,31,2.90
2020,04,12,09,32,3.00
2020,04,12,09,33,3.10
2020,04,12,09,34,3.20
2020,04,12,09,35,3.30
2020,04,12,09,36,3.50
2020,04,12,09,37,3.60
2020,04,12,09,38,3.70
2020,04,12,09,39,3.80
2020,04,12,09,40,4.00
2020,04,12,09,41,4.10
2020,04,12,09,42,4.20
2020,04,12,09,43,4.40
2020,04,12,09,44,4.50
2020,04,12,09,45,4.60
2020,04,12,09,46,4.70
2020,04,12,09,47,4.90
2020,04,12,09,48,5.00
2020,04,12,09,49,5.20
2020,04,12,09,50,5.30
2020,04,12,09,51,5.50
2020,04,12,09,52,5.60
2020,04,12,09,53,5.70
2020,04,12,09,54,5.80
2020,04,12,09,55,6.00
2020,04,12,09,56,6.20
2020,04,12,09,57,6.40
2020,04,12,09,58,6.60
2020,04,12,09,59,6.70
2020,04,12,10,00,6.80
2020,04,12,10,01,7.00
2020,04,12,10,02,7.20
2020,04,12,10,03,7.20
2020,04,12,10,04,7.30
2020,04,12,10,05,7.40
2020,04,12,10,06,7.40
2020,04,12,10,07,7.50
2020,04,12,10,08,7.60
2020,04,12,10,09,7.60
2020,04,12,10,10,7.60
2020,04,12,10,11,7.70
2020,04,12,10,12,7.70
2020,04,12,10,13,7.80
2020,04,12,10,14,7.90
2020,04,12,10,15,7.90
2020,04,12,10,16,7.90
2020,04,12,10,17,8.00
2020,04,12,10,18,8.10
2020,04,12,10,19,8.10
2020,04,12,10,20,8.10
2020,04,12,10,21,8.20
2020,04,12,10,22,8.20
2020,04,12,10,23,8.20
2020,04,12,10,24,8.30
2020,04,12,10,25,8.30
2020,04,12,10,26,8.30
2020,04,12,10,27,8.40
2020,04,12,10,28,8.40
2020,04,12,10,29,8.40
2020,04,12,10,30,8.40
2020,04,12,10,31,8.40
2020,04,12,10,32,8.50
2020,04,12,10,33,8.60
2020,04,12,10,34,8.60
2020,04,12,10,35,8.60
2020,04,12,10,36,8.70
2020,04,12,10,37,8.70
2020,04,12,10,38,8.80
2020,04,12,10,39,8.80
2020,04,12,10,40,8.80
2020,04,12,10,41,8.80
2020,04,12,10,42,8.90
2020,04,12,10,43,8.90
2020,04,12,10,44,8.90
2020,04,12,10,45,8.90
2020,04,12,10,46,9.00
2020,04,12,10,47,9.00
2020,04,12,10,48,9.10
2020,04,12,10,49,9.10
2020,04,12,10,50,9.20
2020,04,12,10,51,9.20
2020,04,12,10,52,9.30
2020,04,12,10,53,9.30
2020,04,12,10,54,9.30
2020,04,12,10,55,9.30
2020,04,12,10,56,9.30
2020,04,12,10,57,9.30
2020,04,12,10,58,9.30
2020,04,12,10,59,9.30
2020,04,12,11,00,9.30
2020,04,12,11,01,9.30
2020,04,12,11,02,9.40
2020,04,12,11,03,9.40
2020,04,12,11,04,9.50
2020,04,12,11,05,9.50
2020,04,12,11,06,9.60
2020,04,12,11,07,9.60
2020,04,12,11,08,9.70
2020,04,12,11,09,9.70
2020,04,12,11,10,9.70
2020,04,12,11,11,9.70
2020,04,12,11,12,9.80
2020,04,12,11,13,9.80
2020,04,12,11,14,9.80
2020,04,12,11,15,9.90
2020,04,12,11,16,9.90
2020,04,12,11,17,9.90
2020,04,12,11,18,10.00
2020,04,12,11,19,10.00
2020,04,12,11,20,10.00
2020,04,12,11,21,10.10
2020,04,12,11,22,10.10
2020,04,12,11,23,10.10
2020,04,12,11,24,10.10
2020,04,12,11,25,10.20
2020,04,12,11,26,10.20
2020,04,12,11,27,10.20
2020,04,12,11,28,10.20
2020,04,12,11,29,10.30
2020,04,12,11,30,10.30
2020,04,12,11,31,10.30
2020,04,12,11,32,10.30
2020,04,12,11,33,10.30
2020,04,12,11,34,10.30
2020,04,12,11,35,10.30
2020,04,12,11,36,10.30
2020,04,12,11,37,10.30
2020,04,12,11,38,10.40
2020,04,12,11,39,10.40
2020,04,12,11,40,10.40
2020,04,12,11,41,10.50
2020,04,12,11,42,10.50
2020,04,12,11,43,10.50
2020,04,12,11,44,10.60
2020,04,12,11,45,10.60
2020,04,12,11,46,10.60
2020,04,12,11,47,10.60
2020,04,12,11,48,10.60
2020,04,12,11,49,10.60
2020,04,12,11,50,10.70
2020,04,12,11,51,10.70
2020,04,12,11,52,10.70
2020,04,12,11,53,10.70
2020,04,12,11,54,10.70
2020,04,12,11,55,10.70
2020,04,12,11,56,10.70
2020,04,12,11,57,10.80
2020,04,12,11,58,10.80
2020,04,12,11,59,10.80
2020,04,12,12,00,10.80
2020,04,12,12,01,10.90
2020,04,12,12,02,10.90
2020,04,12,12,03,10.90
2020,04,12,12,04,11.00
2020,04,12,12,05,11.00
2020,04,12,12,06,11.10
2020,04,12,12,07,11.10
2020,04,12,12,08,11.20
2020,04,12,12,09,11.20
2020,04,12,12,10,11.30
2020,04,12,12,11,11.30
2020,04,12,12,12,11.30
2020,04,12,12,13,11.30
2020,04,12,12,14,11.30
2020,04,12,12,15,11.30
2020,04,12,12,16,11.30
2020,04,12,12,17,11.30
2020,04,12,12,18,11.30
2020,04,12,12,19,11.30
2020,04,12,12,20,11.30
2020,04,12,12,21,11.30
2020,04,12,12,22,11.30
2020,04,12,12,23,11.40
2020,04,12,12,24,11.40
2020,04,12,12,25,11.40
2020,04,12,12,26,11.50
2020,04,12,12,27,11.50
2020,04,12,12,28,11.50
2020,04,12,12,29,11.60
2020,04,12,12,30,11.60
2020,04,12,12,31,11.70
2020,04,12,12,32,11.70
2020,04,12,12,33,11.80
2020,04,12,12,34,11.90
2020,04,12,12,35,12.00
2020,04,12,12,36,12.00
2020,04,12,12,37,12.10
2020,04,12,12,38,12.10
2020,04,12,12,39,12.20
2020,04,12,12,40,12.20
2020,04,12,12,41,12.30
2020,04,12,12,42,12.30
2020,04,12,12,43,12.30
2020,04,12,12,44,12.30
2020,04,12,12,45,12.20
2020,04,12,12,46,12.20
2020,04,12,12,47,12.20
2020,04,12,12,48,12.20
2020,04,12,12,49,12.10
2020,04,12,12,50,12.10
2020,04,12,12,51,12.10
2020,04,12,12,52,12.10
2020,04,12,12,53,12.10
2020,04,12,12,54,12.10
2020,04,12,12,55,12.10
2020,04,12,12,56,12.10
2020,04,12,12,57,12.10
2020,04,12,12,58,12.10
2020,04,12,12,59,12.10
2020,04,12,13,00,12.10
2020,04,12,13,01,12.10
2020,04,12,13,02,12.20
2020,04,12,13,03,12.20
2020,04,12,13,04,12.20
2020,04,12,13,05,12.30
2020,04,12,13,06,12.30
2020,04,12,13,07,12.30
2020,04,12,13,08,12.30
2020,04,12,13,09,12.30
2020,04,12,13,10,12.40
2020,04,12,13,11,12.40
2020,04,12,13,12,12.30
2020,04,12,13,13,12.30
2020,04,12,13,14,12.30
2020,04,12,13,15,12.40
2020,04,12,13,16,12.40
2020,04,12,13,17,12.40
2020,04,12,13,18,12.50
2020,04,12,13,19,12.60
2020,04,12,13,20,12.60
2020,04,12,13,21,12.70
2020,04,12,13,22,12.70
2020,04,12,13,23,12.80
2020,04,12,13,24,12.80
2020,04,12,13,25,12.90
2020,04,12,13,26,12.90
2020,04,12,13,27,13.00
2020,04,12,13,28,13.00
2020,04,12,13,29,13.10
2020,04,12,13,30,13.10
2020,04,12,13,31,13.10
2020,04,12,13,32,13.10
2020,04,12,13,33,13.20
2020,04,12,13,34,13.20
2020,04,12,13,35,13.20
2020,04,12,13,36,13.20
2020,04,12,13,37,13.20
2020,04,12,13,38,13.10
2020,04,12,13,39,13.10
2020,04,12,13,40,13.00
2020,04,12,13,41,13.10
2020,04,12,13,42,13.10
2020,04,12,13,43,13.10
2020,04,12,13,44,13.00
2020,04,12,13,45,13.00
2020,04,12,13,46,13.00
2020,04,12,13,47,13.00
2020,04,12,13,48,13.10
2020,04,12,13,49,13.10
2020,04,12,13,50,13.10
2020,04,12,13,51,13.10
2020,04,12,13,52,13.10
2020,04,12,13,53,13.10
2020,04,12,13,54,13.10
2020,04,12,13,55,13.10
2020,04,12,13,56,13.20
2020,04,12,13,57,13.20
2020,04,12,13,58,13.30
2020,04,12,13,59,13.30
2020,04,12,14,00,13.40
2020,04,12,14,01,13.40
2020,04,12,14,02,13.50
2020,04,12,14,03,13.50
2020,04,12,14,04,13.50
2020,04,12,14,05,13.50
2020,04,12,14,06,13.50
2020,04,12,14,07,13.50
2020,04,12,14,08,13.50
2020,04,12,14,09,13.50
2020,04,12,14,10,13.60
2020,04,12,14,11,13.60
2020,04,12,14,12,13.70
2020,04,12,14,13,13.70
2020,04,12,14,14,13.70
2020,04,12,14,15,13.70
2020,04,12,14,16,13.70
2020,04,12,14,17,13.70
2020,04,12,14,18,13.70
2020,04,12,14,19,13.70
2020,04,12,14,20,13.70
2020,04,12,14,21,13.80
2020,04,12,14,22,13.80
2020,04,12,14,23,13.90
2020,04,12,14,24,13.90
2020,04,12,14,25,14.00
2020,04,12,14,26,14.00
2020,04,12,14,27,14.00
2020,04,12,14,28,14.10
2020,04,12,14,29,14.10
2020,04,12,14,30,14.10
2020,04,12,14,31,14.10
2020,04,12,14,32,14.10
2020,04,12,14,33,14.10
2020,04,12,14,34,14.10
2020,04,12,14,35,14.20
2020,04,12,14,36,14.20
2020,04,12,14,37,14.20
2020,04,12,14,38,14.20
2020,04,12,14,39,14.20
2020,04,12,14,40,14.20
2020,04,12,14,41,14.20
2020,04,12,14,42,14.20
2020,04,12,14,43,14.30
2020,04,12,14,44,14.30
2020,04,12,14,45,14.30
2020,04,12,14,46,14.30
2020,04,12,14,47,14.30
2020,04,12,14,48,14.30
2020,04,12,14,49,14.20
2020,04,12,14,50,14.20
2020,04,12,14,51,14.20
2020,04,12,14,52,14.20
2020,04,12,14,53,14.30
2020,04,12,14,54,14.30
2020,04,12,14,55,14.30
2020,04,12,14,56,14.40
2020,04,12,14,57,14.40
2020,04,12,14,58,14.50
2020,04,12,14,59,14.60
2020,04,12,15,00,14.60
2020,04,12,15,01,14.70
2020,04,12,15,02,14.80
2020,04,12,15,03,14.90
2020,04,12,15,04,15.00
2020,04,12,15,05,15.00
2020,04,12,15,06,15.00
2020,04,12,15,07,15.00
2020,04,12,15,08,15.00
2020,04,12,15,09,15.00
2020,04,12,15,10,15.00
2020,04,12,15,11,14.80
2020,04,12,15,12,14.80
2020,04,12,15,13,14.70
2020,04,12,15,14,14.80
2020,04,12,15,15,14.80
2020,04,12,15,16,15.00
2020,04,12,15,17,15.00
2020,04,12,15,18,15.00
2020,04,12,15,19,15.00
2020,04,12,15,20,15.00
2020,04,12,15,21,15.00
2020,04,12,15,22,15.00
2020,04,12,15,23,15.10
2020,04,12,15,24,15.10
2020,04,12,15,25,15.10
2020,04,12,15,26,15.00
2020,04,12,15,27,15.00
2020,04,12,15,28,15.00
2020,04,12,15,29,15.00
2020,04,12,15,30,15.00
2020,04,12,15,31,15.00
2020,04,12,15,32,15.00
2020,04,12,15,33,15.00
2020,04,12,15,34,15.00
2020,04,12,15,35,15.10
2020,04,12,15,36,15.20
2020,04,12,15,37,15.10
2020,04,12,15,38,15.10
2020,04,12,15,39,15.10
2020,04,12,15,40,15.10
2020,04,12,15,41,15.10
2020,04,12,15,42,15.20
2020,04,12,15,43,15.30
2020,04,12,15,44,15.40
2020,04,12,15,45,15.40
2020,04,12,15,46,15.50
2020,04,12,15,47,15.60
2020,04,12,15,48,15.60
2020,04,12,15,49,15.70
2020,04,12,15,50,15.80
2020,04,12,15,51,15.80
2020,04,12,15,52,15.80
2020,04,12,15,53,15.80
2020,04,12,15,54,15.80
2020,04,12,15,55,15.70
2020,04,12,15,56,15.60
2020,04,12,15,57,15.50
2020,04,12,15,58,15.40
2020,04,12,15,59,15.30
2020,04,12,16,00,15.30
2020,04,12,16,01,15.40
2020,04,12,16,02,15.50
2020,04,12,16,03,15.60
2020,04,12,16,04,15.70
2020,04,12,16,05,15.70
2020,04,12,16,06,15.70
2020,04,12,16,07,15.60
2020,04,12,16,08,15.60
2020,04,12,16,09,15.60
2020,04,12,16,10,15.60
2020,04,12,16,11,15.60
2020,04,12,16,12,15.60
2020,04,12,16,13,15.60
2020,04,12,16,14,15.60
2020,04,12,16,15,15.60
2020,04,12,16,16,15.60
2020,04,12,16,17,15.60
2020,04,12,16,18,15.60
2020,04,12,16,19,15.50
2020,04,12,16,20,15.40
2020,04,12,16,21,15.40
2020,04,12,16,22,15.30
2020,04,12,16,23,15.20
2020,04,12,16,24,15.20
2020,04,12,16,25,15.30
2020,04,12,16,26,15.30
2020,04,12,16,27,15.30
2020,04,12,16,28,15.30
2020,04,12,16,29,15.30
2020,04,12,16,30,15.20
2020,04,12,16,31,15.10
2020,04,12,16,32,15.00
2020,04,12,16,33,15.00
2020,04,12,16,34,15.00
2020,04,12,16,35,15.00
2020,04,12,16,36,15.10
2020,04,12,16,37,15.20
2020,04,12,16,38,15.30
2020,04,12,16,39,15.30
2020,04,12,16,40,15.30
2020,04,12,16,41,15.40
2020,04,12,16,42,15.40
2020,04,12,16,43,15.50
2020,04,12,16,44,15.60
2020,04,12,16,45,15.60
2020,04,12,16,46,15.60
2020,04,12,16,47,15.70
2020,04,12,16,48,15.70
2020,04,12,16,49,15.70
2020,04,12,16,50,15.70
2020,04,12,16,51,15.70
2020,04,12,16,52,15.80
2020,04,12,16,53,15.80
2020,04,12,16,54,15.80
2020,04,12,16,55,15.90
2020,04,12,16,56,15.90
2020,04,12,16,57,15.80
2020,04,12,16,58,15.80
2020,04,12,16,59,15.80
2020,04,12,17,00,15.70
2020,04,12,17,01,15.70
2020,04,12,17,02,15.70
2020,04,12,17,03,15.60
2020,04,12,17,04,15.50
2020,04,12,17,05,15.40
2020,04,12,17,06,15.30
2020,04,12,17,07,15.20
2020,04,12,17,08,15.10
2020,04,12,17,09,15.00
2020,04,12,17,10,15.00
2020,04,12,17,11,15.00
2020,04,12,17,12,15.00
2020,04,12,17,13,15.00
2020,04,12,17,14,15.00
2020,04,12,17,15,15.00
2020,04,12,17,16,15.00
2020,04,12,17,17,15.00
2020,04,12,17,18,15.00
2020,04,12,17,19,14.90
2020,04,12,17,20,14.90
2020,04,12,17,21,14.90
2020,04,12,17,22,14.90
2020,04,12,17,23,14.80
2020,04,12,17,24,14.80
2020,04,12,17,25,14.80
2020,04,12,17,26,14.80
2020,04,12,17,27,14.80
2020,04,12,17,28,14.70
2020,04,12,17,29,14.60
2020,04,12,17,30,14.50
2020,04,12,17,31,14.50
2020,04,12,17,32,14.40
2020,04,12,17,33,14.30
2020,04,12,17,34,14.30
2020,04,12,17,35,14.30
2020,04,12,17,36,14.30
2020,04,12,17,37,14.30
2020,04,12,17,38,14.30
2020,04,12,17,39,14.20
2020,04,12,17,40,14.20